West Palm Beach, FL

8:56 AM EST on December 08, 2019 (GMT -0500)
Palm Beach International

Weather History for KPBI - October, 2019

Change the Weather History Date:

Saturday, October 26, 2019

  Actual Average Record
Temperature  
Mean Temperature 79 °F 76 °F  
Max Temperature 84 °F 83 °F 91 °F (2018)
Min Temperature 74 °F 70 °F 52 °F (1929)
Degree Days  
Heating Degree Days 0 0  
Month to date heating degree days 0 0  
Since 1 July heating degree days 0 0  
Cooling Degree Days 14 12  
Month to date cooling degree days 441 359  
Year to date cooling degree days 4150 3567  
Growing Degree Days 28 (Base 50)    
Moisture  
Dew Point 74 °F    
Average Humidity 82    
Maximum Humidity 94    
Minimum Humidity 69    
Precipitation  
Precipitation 0.84 in 0.16 in 1.62 in (2012)
Month to date precipitation 5.15 4.41  
Year to date precipitation 53.14 53.48  
Snow  
Snow 0.00 in - - ()
Month to date snowfall 0.0  
Since 1 July snowfall 0.0  
Since 1 September snowfall 0.0  
Snow Depth 0.00 in    
Sea Level Pressure  
Sea Level Pressure 29.96 in    
Wind  
Wind Speed 10 mph (SE)    
Max Wind Speed 24 mph    
Max Gust Speed 30 mph    
Visibility 8 miles    
Events Rain , Thunderstorm    
T = Trace of Precipitation, MM = Missing Value Source: NWS Daily Summary

Daily Weather History Graph

Daily Weather History Graph

Search for Another Location

Airport or City:

Astronomy

Oct. 26, 2019 Rise Set
Actual Time 7:25 AM EDT 6:42 PM EDT
Civil Twilight 7:02 AM EDT 7:06 PM EDT
Nautical Twilight 6:35 AM EDT 7:33 PM EDT
Astronomical Twilight 6:07 AM EDT 8:00 PM EDT
Moon 5:38 AM EDT (10/26) 6:02 PM EDT (10/26)
Length of Visible Light 12h 03m
Length of Day
11h 16m
Waning Crescent, 3% of the Moon is Illuminated
Oct 26
Waning Crescent
Oct 27
New
Nov 4
First Quarter
Nov 12
Full
Nov 19
Last Quarter

Hourly Weather History & Observations

Time (EDT) Temp. Heat Index Dew Point Humidity Pressure Visibility Wind Dir Wind Speed Gust Speed Precip Events Conditions
12:53 AM 82.0 °F 86.3 °F 71.1 °F 69% 29.99 in 10.0 mi East 13.8 mph - N/A   Scattered Clouds
1:19 AM 78.1 °F - 73.9 °F 87% 30.00 in 4.0 mi ESE 18.4 mph - 0.06 in Rain , Thunderstorm Light Thunderstorms and Rain
1:53 AM 75.9 °F - 73.0 °F 91% 30.00 in 10.0 mi ENE 6.9 mph - 0.07 in Thunderstorm Thunderstorm
2:03 AM 75.9 °F - 73.0 °F 91% 29.99 in 10.0 mi NE 5.8 mph - N/A   Scattered Clouds
2:53 AM 78.1 °F - 73.9 °F 87% 29.98 in 10.0 mi East 15.0 mph - N/A   Scattered Clouds
3:53 AM 78.1 °F - 73.9 °F 87% 29.96 in 10.0 mi ENE 10.4 mph - N/A   Scattered Clouds
4:53 AM 78.1 °F - 73.9 °F 87% 29.96 in 10.0 mi East 11.5 mph - 0.01 in   Scattered Clouds
5:51 AM 75.2 °F - 73.4 °F 94% 29.97 in 5.0 mi SSE 9.2 mph - 0.10 in Rain , Thunderstorm Light Thunderstorms and Rain
5:53 AM 75.9 °F - 73.9 °F 94% 29.97 in 5.0 mi SSE 6.9 mph - 0.10 in Rain , Thunderstorm Light Thunderstorms and Rain
6:28 AM 77.0 °F - 73.9 °F 90% 29.94 in 10.0 mi SE 9.2 mph - 0.01 in Rain Light Rain
6:53 AM 77.0 °F - 73.0 °F 88% 29.94 in 10.0 mi ESE 15.0 mph - 0.01 in   Mostly Cloudy
7:53 AM 78.1 °F - 73.9 °F 87% 29.94 in 10.0 mi ESE 15.0 mph - N/A   Mostly Cloudy
8:53 AM 79.0 °F - 75.0 °F 88% 29.95 in 10.0 mi ESE 15.0 mph - N/A   Mostly Cloudy
9:53 AM 81.0 °F 87.3 °F 75.9 °F 85% 29.97 in 10.0 mi SE 23.0 mph 27.6 mph N/A   Mostly Cloudy
10:53 AM 82.0 °F 87.9 °F 73.9 °F 76% 29.98 in 10.0 mi SSE 21.9 mph - N/A   Mostly Cloudy
11:53 AM 84.0 °F 91.2 °F 73.9 °F 72% 29.98 in 10.0 mi SE 18.4 mph 25.3 mph N/A   Mostly Cloudy
12:53 PM 82.9 °F 90.2 °F 75.0 °F 77% 29.96 in 10.0 mi SSE 19.6 mph - N/A   Mostly Cloudy
1:01 PM 82.9 °F 90.2 °F 75.0 °F 77% 29.96 in 10.0 mi SSE 19.6 mph - N/A Thunderstorm Thunderstorm
1:53 PM 82.0 °F 87.9 °F 73.9 °F 76% 29.95 in 8.0 mi SW 11.5 mph - N/A Thunderstorm Thunderstorm
2:03 PM 75.9 °F - 73.0 °F 91% 29.94 in 5.0 mi Variable 5.8 mph 21.9 mph 0.08 in Rain , Thunderstorm Light Thunderstorms and Rain
2:53 PM 78.1 °F - 75.9 °F 93% 29.94 in 8.0 mi Calm Calm - 0.14 in Rain , Thunderstorm Light Thunderstorms and Rain
3:16 PM 75.0 °F - 71.1 °F 87% 29.94 in 2.5 mi WSW 11.5 mph 25.3 mph 0.02 in Rain , Thunderstorm Heavy Thunderstorms and Rain
3:22 PM 73.9 °F - 70.0 °F 87% 29.93 in 5.0 mi WNW 10.4 mph 24.2 mph 0.19 in Rain , Thunderstorm Light Thunderstorms and Rain
3:53 PM 78.1 °F - 75.0 °F 90% 29.93 in 10.0 mi Calm Calm - 0.29 in Thunderstorm Thunderstorm
4:05 PM 81.0 °F 86.7 °F 75.0 °F 82% 29.92 in 10.0 mi Calm Calm - N/A   Mostly Cloudy
4:35 PM 75.9 °F - 73.0 °F 91% 29.95 in 7.0 mi SW 11.5 mph 23.0 mph N/A Thunderstorm Thunderstorm
4:42 PM 75.0 °F - 73.0 °F 94% 29.95 in 2.5 mi SSW 17.3 mph - 0.05 in Rain , Thunderstorm Heavy Thunderstorms and Rain
4:53 PM 75.0 °F - 73.0 °F 94% 29.94 in 2.5 mi SW 10.4 mph - 0.21 in Rain , Thunderstorm Thunderstorms and Rain
4:57 PM 75.0 °F - 73.0 °F 94% 29.94 in 5.0 mi SW 10.4 mph - 0.00 in Rain , Thunderstorm Light Thunderstorms and Rain
5:15 PM 75.0 °F - 73.0 °F 94% 29.94 in 10.0 mi SW 6.9 mph - 0.01 in   Mostly Cloudy
5:53 PM 75.9 °F - 73.0 °F 91% 29.94 in 10.0 mi SSE 4.6 mph - 0.01 in   Mostly Cloudy
6:53 PM 77.0 °F - 73.0 °F 88% 29.95 in 10.0 mi Calm Calm - N/A   Scattered Clouds
7:53 PM 77.0 °F - 73.9 °F 90% 29.96 in 10.0 mi ESE 3.5 mph - N/A   Clear
8:53 PM 77.0 °F - 75.0 °F 94% 29.97 in 10.0 mi SE 3.5 mph - N/A   Clear
9:53 PM 77.0 °F - 75.0 °F 94% 29.99 in 10.0 mi SE 3.5 mph - N/A   Clear
10:53 PM 77.0 °F - 75.0 °F 94% 29.99 in 10.0 mi SSE 5.8 mph - N/A   Clear
11:53 PM 77.0 °F - 75.0 °F 94% 30.00 in 10.0 mi South 3.5 mph - N/A   Partly Cloudy